Year,Month,Day,Hour,Minute,Value (Times are PST for temperature in C)
2007,08,11,00,00,14.10
2007,08,11,00,01,14.00
2007,08,11,00,02,14.00
2007,08,11,00,03,14.00
2007,08,11,00,04,14.00
2007,08,11,00,05,14.00
2007,08,11,00,06,14.00
2007,08,11,00,07,13.90
2007,08,11,00,08,13.90
2007,08,11,00,09,13.90
2007,08,11,00,10,13.90
2007,08,11,00,11,13.90
2007,08,11,00,12,13.90
2007,08,11,00,13,13.90
2007,08,11,00,14,13.90
2007,08,11,00,15,13.90
2007,08,11,00,16,13.80
2007,08,11,00,17,13.80
2007,08,11,00,18,13.80
2007,08,11,00,19,13.80
2007,08,11,00,20,13.80
2007,08,11,00,21,13.70
2007,08,11,00,22,13.70
2007,08,11,00,23,13.70
2007,08,11,00,24,13.70
2007,08,11,00,25,13.70
2007,08,11,00,26,13.70
2007,08,11,00,27,13.70
2007,08,11,00,28,13.70
2007,08,11,00,29,13.70
2007,08,11,00,30,13.70
2007,08,11,00,31,13.60
2007,08,11,00,32,13.60
2007,08,11,00,33,13.60
2007,08,11,00,34,13.60
2007,08,11,00,35,13.60
2007,08,11,00,36,13.50
2007,08,11,00,37,13.50
2007,08,11,00,38,13.40
2007,08,11,00,39,13.30
2007,08,11,00,40,13.30
2007,08,11,00,41,13.30
2007,08,11,00,42,13.30
2007,08,11,00,43,13.30
2007,08,11,00,44,13.30
2007,08,11,00,45,13.30
2007,08,11,00,46,13.30
2007,08,11,00,47,13.30
2007,08,11,00,48,13.30
2007,08,11,00,49,13.30
2007,08,11,00,50,13.30
2007,08,11,00,51,13.30
2007,08,11,00,52,13.30
2007,08,11,00,53,13.30
2007,08,11,00,54,13.30
2007,08,11,00,55,13.20
2007,08,11,00,56,13.20
2007,08,11,00,57,13.20
2007,08,11,00,58,13.20
2007,08,11,00,59,13.20
2007,08,11,01,00,13.20
2007,08,11,01,01,13.20
2007,08,11,01,02,13.10
2007,08,11,01,03,13.10
2007,08,11,01,04,13.10
2007,08,11,01,05,13.10
2007,08,11,01,06,13.10
2007,08,11,01,07,13.10
2007,08,11,01,08,13.10
2007,08,11,01,09,13.10
2007,08,11,01,10,13.00
2007,08,11,01,11,13.00
2007,08,11,01,12,13.00
2007,08,11,01,13,13.00
2007,08,11,01,14,13.00
2007,08,11,01,15,13.00
2007,08,11,01,16,13.00
2007,08,11,01,17,13.00
2007,08,11,01,18,13.00
2007,08,11,01,19,13.00
2007,08,11,01,20,13.00
2007,08,11,01,21,13.00
2007,08,11,01,22,13.00
2007,08,11,01,23,13.00
2007,08,11,01,24,13.00
2007,08,11,01,25,13.00
2007,08,11,01,26,13.00
2007,08,11,01,27,13.00
2007,08,11,01,28,13.00
2007,08,11,01,29,13.00
2007,08,11,01,30,13.00
2007,08,11,01,31,12.90
2007,08,11,01,32,12.90
2007,08,11,01,33,12.90
2007,08,11,01,34,12.90
2007,08,11,01,35,12.90
2007,08,11,01,36,12.90
2007,08,11,01,37,12.90
2007,08,11,01,38,12.90
2007,08,11,01,39,12.80
2007,08,11,01,40,12.80
2007,08,11,01,41,12.80
2007,08,11,01,42,12.80
2007,08,11,01,43,12.80
2007,08,11,01,44,12.80
2007,08,11,01,45,12.80
2007,08,11,01,46,12.80
2007,08,11,01,47,12.80
2007,08,11,01,48,12.70
2007,08,11,01,49,12.70
2007,08,11,01,50,12.70
2007,08,11,01,51,12.70
2007,08,11,01,52,12.70
2007,08,11,01,53,12.70
2007,08,11,01,54,12.70
2007,08,11,01,55,12.70
2007,08,11,01,56,12.70
2007,08,11,01,57,12.70
2007,08,11,01,58,12.70
2007,08,11,01,59,12.70
2007,08,11,02,00,12.70
2007,08,11,02,01,12.70
2007,08,11,02,02,12.70
2007,08,11,02,03,12.70
2007,08,11,02,04,12.70
2007,08,11,02,05,12.60
2007,08,11,02,06,12.60
2007,08,11,02,07,12.60
2007,08,11,02,08,12.60
2007,08,11,02,09,12.60
2007,08,11,02,10,12.60
2007,08,11,02,11,12.60
2007,08,11,02,12,12.60
2007,08,11,02,13,12.60
2007,08,11,02,14,12.60
2007,08,11,02,15,12.60
2007,08,11,02,16,12.60
2007,08,11,02,17,12.60
2007,08,11,02,18,12.60
2007,08,11,02,19,12.60
2007,08,11,02,20,12.60
2007,08,11,02,21,12.60
2007,08,11,02,22,12.60
2007,08,11,02,23,12.60
2007,08,11,02,24,12.60
2007,08,11,02,25,12.60
2007,08,11,02,26,12.60
2007,08,11,02,27,12.60
2007,08,11,02,28,12.60
2007,08,11,02,29,12.60
2007,08,11,02,30,12.70
2007,08,11,02,31,12.70
2007,08,11,02,32,12.70
2007,08,11,02,33,12.60
2007,08,11,02,34,12.60
2007,08,11,02,35,12.60
2007,08,11,02,36,12.60
2007,08,11,02,37,12.60
2007,08,11,02,38,12.60
2007,08,11,02,39,12.70
2007,08,11,02,40,12.70
2007,08,11,02,41,12.60
2007,08,11,02,42,12.60
2007,08,11,02,43,12.70
2007,08,11,02,44,12.70
2007,08,11,02,45,12.70
2007,08,11,02,46,12.70
2007,08,11,02,47,12.70
2007,08,11,02,48,12.70
2007,08,11,02,49,12.70
2007,08,11,02,50,12.70
2007,08,11,02,51,12.70
2007,08,11,02,52,12.70
2007,08,11,02,53,12.70
2007,08,11,02,54,12.70
2007,08,11,02,55,12.70
2007,08,11,02,56,12.70
2007,08,11,02,57,12.70
2007,08,11,02,58,12.70
2007,08,11,02,59,12.70
2007,08,11,03,00,12.70
2007,08,11,03,01,12.70
2007,08,11,03,02,12.70
2007,08,11,03,03,12.70
2007,08,11,03,04,12.80
2007,08,11,03,05,12.80
2007,08,11,03,06,12.80
2007,08,11,03,07,12.80
2007,08,11,03,08,12.80
2007,08,11,03,09,12.80
2007,08,11,03,10,12.90
2007,08,11,03,11,12.80
2007,08,11,03,12,12.80
2007,08,11,03,13,12.80
2007,08,11,03,14,12.80
2007,08,11,03,15,12.80
2007,08,11,03,16,12.80
2007,08,11,03,17,12.80
2007,08,11,03,18,12.80
2007,08,11,03,19,12.80
2007,08,11,03,20,12.80
2007,08,11,03,21,12.80
2007,08,11,03,22,12.80
2007,08,11,03,23,12.80
2007,08,11,03,24,12.80
2007,08,11,03,25,12.70
2007,08,11,03,26,12.70
2007,08,11,03,27,12.70
2007,08,11,03,28,12.70
2007,08,11,03,29,12.70
2007,08,11,03,30,12.60
2007,08,11,03,31,12.60
2007,08,11,03,32,12.60
2007,08,11,03,33,12.60
2007,08,11,03,34,12.60
2007,08,11,03,35,12.60
2007,08,11,03,36,12.50
2007,08,11,03,37,12.50
2007,08,11,03,38,12.50
2007,08,11,03,39,12.50
2007,08,11,03,40,12.50
2007,08,11,03,41,12.50
2007,08,11,03,42,12.50
2007,08,11,03,43,12.50
2007,08,11,03,44,12.50
2007,08,11,03,45,12.50
2007,08,11,03,46,12.50
2007,08,11,03,47,12.50
2007,08,11,03,48,12.40
2007,08,11,03,49,12.40
2007,08,11,03,50,12.40
2007,08,11,03,51,12.40
2007,08,11,03,52,12.40
2007,08,11,03,53,12.40
2007,08,11,03,54,12.40
2007,08,11,03,55,12.30
2007,08,11,03,56,12.30
2007,08,11,03,57,12.30
2007,08,11,03,58,12.30
2007,08,11,03,59,12.30
2007,08,11,04,00,12.30
2007,08,11,04,01,12.30
2007,08,11,04,02,12.30
2007,08,11,04,03,12.20
2007,08,11,04,04,12.20
2007,08,11,04,05,12.20
2007,08,11,04,06,12.20
2007,08,11,04,07,12.20
2007,08,11,04,08,12.20
2007,08,11,04,09,12.20
2007,08,11,04,10,12.30
2007,08,11,04,11,12.30
2007,08,11,04,12,12.30
2007,08,11,04,13,12.30
2007,08,11,04,14,12.20
2007,08,11,04,15,12.20
2007,08,11,04,16,12.20
2007,08,11,04,17,12.20
2007,08,11,04,18,12.20
2007,08,11,04,19,12.20
2007,08,11,04,20,12.20
2007,08,11,04,21,12.20
2007,08,11,04,22,12.20
2007,08,11,04,23,12.20
2007,08,11,04,24,12.20
2007,08,11,04,25,12.20
2007,08,11,04,26,12.20
2007,08,11,04,27,12.20
2007,08,11,04,28,12.20
2007,08,11,04,29,12.20
2007,08,11,04,30,12.30
2007,08,11,04,31,12.30
2007,08,11,04,32,12.30
2007,08,11,04,33,12.40
2007,08,11,04,34,12.40
2007,08,11,04,35,12.40
2007,08,11,04,36,12.40
2007,08,11,04,37,12.40
2007,08,11,04,38,12.30
2007,08,11,04,39,12.30
2007,08,11,04,40,12.30
2007,08,11,04,41,12.30
2007,08,11,04,42,12.30
2007,08,11,04,43,12.20
2007,08,11,04,44,12.20
2007,08,11,04,45,12.20
2007,08,11,04,46,12.20
2007,08,11,04,47,12.20
2007,08,11,04,48,12.20
2007,08,11,04,49,12.20
2007,08,11,04,50,12.20
2007,08,11,04,51,12.20
2007,08,11,04,52,12.20
2007,08,11,04,53,12.10
2007,08,11,04,54,12.10
2007,08,11,04,55,12.10
2007,08,11,04,56,12.10
2007,08,11,04,57,12.10
2007,08,11,04,58,12.10
2007,08,11,04,59,12.10
2007,08,11,05,00,12.10
2007,08,11,05,01,12.10
2007,08,11,05,02,12.10
2007,08,11,05,03,12.10
2007,08,11,05,04,12.00
2007,08,11,05,05,12.00
2007,08,11,05,06,12.00
2007,08,11,05,07,12.00
2007,08,11,05,08,12.00
2007,08,11,05,09,12.00
2007,08,11,05,10,11.90
2007,08,11,05,11,11.90
2007,08,11,05,12,11.90
2007,08,11,05,13,11.90
2007,08,11,05,14,11.90
2007,08,11,05,15,11.90
2007,08,11,05,16,11.90
2007,08,11,05,17,11.90
2007,08,11,05,18,11.80
2007,08,11,05,19,11.80
2007,08,11,05,20,11.80
2007,08,11,05,21,11.80
2007,08,11,05,22,11.80
2007,08,11,05,23,11.80
2007,08,11,05,24,11.80
2007,08,11,05,25,11.90
2007,08,11,05,26,11.90
2007,08,11,05,27,11.90
2007,08,11,05,28,11.90
2007,08,11,05,29,11.90
2007,08,11,05,30,11.90
2007,08,11,05,31,11.90
2007,08,11,05,32,11.90
2007,08,11,05,33,11.90
2007,08,11,05,34,11.90
2007,08,11,05,35,12.00
2007,08,11,05,36,12.00
2007,08,11,05,37,12.00
2007,08,11,05,38,12.00
2007,08,11,05,39,12.00
2007,08,11,05,40,12.00
2007,08,11,05,41,12.00
2007,08,11,05,42,12.00
2007,08,11,05,43,12.00
2007,08,11,05,44,11.90
2007,08,11,05,45,11.90
2007,08,11,05,46,11.90
2007,08,11,05,47,11.90
2007,08,11,05,48,11.90
2007,08,11,05,49,11.90
2007,08,11,05,50,11.90
2007,08,11,05,51,11.90
2007,08,11,05,52,11.90
2007,08,11,05,53,11.90
2007,08,11,05,54,11.90
2007,08,11,05,55,11.90
2007,08,11,05,56,11.90
2007,08,11,05,57,11.90
2007,08,11,05,58,12.00
2007,08,11,05,59,12.00
2007,08,11,06,00,12.00
2007,08,11,06,01,12.00
2007,08,11,06,02,12.10
2007,08,11,06,03,12.10
2007,08,11,06,04,12.10
2007,08,11,06,05,12.10
2007,08,11,06,06,12.10
2007,08,11,06,07,12.10
2007,08,11,06,08,12.10
2007,08,11,06,09,12.10
2007,08,11,06,10,12.10
2007,08,11,06,11,12.10
2007,08,11,06,12,12.10
2007,08,11,06,13,12.10
2007,08,11,06,14,12.10
2007,08,11,06,15,12.10
2007,08,11,06,16,12.10
2007,08,11,06,17,12.10
2007,08,11,06,18,12.10
2007,08,11,06,19,12.10
2007,08,11,06,20,12.10
2007,08,11,06,21,12.10
2007,08,11,06,22,12.10
2007,08,11,06,23,12.10
2007,08,11,06,24,12.10
2007,08,11,06,25,12.10
2007,08,11,06,26,12.10
2007,08,11,06,27,12.10
2007,08,11,06,28,12.10
2007,08,11,06,29,12.20
2007,08,11,06,30,12.20
2007,08,11,06,31,12.20
2007,08,11,06,32,12.20
2007,08,11,06,33,12.20
2007,08,11,06,34,12.20
2007,08,11,06,35,12.20
2007,08,11,06,36,12.20
2007,08,11,06,37,12.20
2007,08,11,06,38,12.30
2007,08,11,06,39,12.30
2007,08,11,06,40,12.30
2007,08,11,06,41,12.30
2007,08,11,06,42,12.30
2007,08,11,06,43,12.30
2007,08,11,06,44,12.40
2007,08,11,06,45,12.40
2007,08,11,06,46,12.40
2007,08,11,06,47,12.40
2007,08,11,06,48,12.50
2007,08,11,06,49,12.50
2007,08,11,06,50,12.50
2007,08,11,06,51,12.60
2007,08,11,06,52,12.60
2007,08,11,06,53,12.60
2007,08,11,06,54,12.60
2007,08,11,06,55,12.60
2007,08,11,06,56,12.70
2007,08,11,06,57,12.70
2007,08,11,06,58,12.70
2007,08,11,06,59,12.70
2007,08,11,07,00,12.70
2007,08,11,07,01,12.70
2007,08,11,07,02,12.80
2007,08,11,07,03,12.80
2007,08,11,07,04,12.80
2007,08,11,07,05,12.80
2007,08,11,07,06,12.80
2007,08,11,07,07,12.80
2007,08,11,07,08,12.90
2007,08,11,07,09,12.90
2007,08,11,07,10,12.90
2007,08,11,07,11,12.90
2007,08,11,07,12,12.80
2007,08,11,07,13,12.90
2007,08,11,07,14,12.90
2007,08,11,07,15,12.90
2007,08,11,07,16,12.90
2007,08,11,07,17,12.90
2007,08,11,07,18,13.00
2007,08,11,07,19,13.00
2007,08,11,07,20,13.00
2007,08,11,07,21,13.00
2007,08,11,07,22,13.00
2007,08,11,07,23,13.00
2007,08,11,07,24,13.00
2007,08,11,07,25,13.00
2007,08,11,07,26,13.10
2007,08,11,07,27,13.10
2007,08,11,07,28,13.10
2007,08,11,07,29,13.10
2007,08,11,07,30,13.20
2007,08,11,07,31,13.20
2007,08,11,07,32,13.20
2007,08,11,07,33,13.20
2007,08,11,07,34,13.20
2007,08,11,07,35,13.20
2007,08,11,07,36,13.30
2007,08,11,07,37,13.30
2007,08,11,07,38,13.30
2007,08,11,07,39,13.30
2007,08,11,07,40,13.40
2007,08,11,07,41,13.40
2007,08,11,07,42,13.40
2007,08,11,07,43,13.40
2007,08,11,07,44,13.40
2007,08,11,07,45,13.50
2007,08,11,07,46,13.50
2007,08,11,07,47,13.50
2007,08,11,07,48,13.60
2007,08,11,07,49,13.60
2007,08,11,07,50,13.60
2007,08,11,07,51,13.60
2007,08,11,07,52,13.70
2007,08,11,07,53,13.70
2007,08,11,07,54,13.70
2007,08,11,07,55,13.70
2007,08,11,07,56,13.70
2007,08,11,07,57,13.80
2007,08,11,07,58,13.80
2007,08,11,07,59,13.80
2007,08,11,08,00,13.90
2007,08,11,08,01,13.90
2007,08,11,08,02,13.90
2007,08,11,08,03,13.90
2007,08,11,08,04,14.00
2007,08,11,08,05,14.00
2007,08,11,08,06,14.00
2007,08,11,08,07,14.10
2007,08,11,08,08,14.10
2007,08,11,08,09,14.10
2007,08,11,08,10,14.20
2007,08,11,08,11,14.20
2007,08,11,08,12,14.20
2007,08,11,08,13,14.30
2007,08,11,08,14,14.30
2007,08,11,08,15,14.30
2007,08,11,08,16,14.40
2007,08,11,08,17,14.40
2007,08,11,08,18,14.40
2007,08,11,08,19,14.50
2007,08,11,08,20,14.50
2007,08,11,08,21,14.60
2007,08,11,08,22,14.60
2007,08,11,08,23,14.70
2007,08,11,08,24,14.70
2007,08,11,08,25,14.70
2007,08,11,08,26,14.80
2007,08,11,08,27,14.80
2007,08,11,08,28,14.90
2007,08,11,08,29,15.00
2007,08,11,08,30,15.00
2007,08,11,08,31,15.00
2007,08,11,08,32,15.00
2007,08,11,08,33,15.00
2007,08,11,08,34,15.00
2007,08,11,08,35,15.00
2007,08,11,08,36,15.00
2007,08,11,08,37,15.00
2007,08,11,08,38,15.10
2007,08,11,08,39,15.20
2007,08,11,08,40,15.20
2007,08,11,08,41,15.20
2007,08,11,08,42,15.20
2007,08,11,08,43,15.30
2007,08,11,08,44,15.30
2007,08,11,08,45,15.30
2007,08,11,08,46,15.30
2007,08,11,08,47,15.40
2007,08,11,08,48,15.40
2007,08,11,08,49,15.40
2007,08,11,08,50,15.40
2007,08,11,08,51,15.40
2007,08,11,08,52,15.50
2007,08,11,08,53,15.50
2007,08,11,08,54,15.50
2007,08,11,08,55,15.60
2007,08,11,08,56,15.60
2007,08,11,08,57,15.60
2007,08,11,08,58,15.60
2007,08,11,08,59,15.70
2007,08,11,09,00,15.70
2007,08,11,09,01,15.70
2007,08,11,09,02,15.70
2007,08,11,09,03,15.70
2007,08,11,09,04,15.80
2007,08,11,09,05,15.80
2007,08,11,09,06,15.80
2007,08,11,09,07,15.80
2007,08,11,09,08,15.80
2007,08,11,09,09,15.90
2007,08,11,09,10,15.90
2007,08,11,09,11,15.90
2007,08,11,09,12,15.90
2007,08,11,09,13,16.00
2007,08,11,09,14,16.00
2007,08,11,09,15,16.00
2007,08,11,09,16,16.00
2007,08,11,09,17,16.00
2007,08,11,09,18,16.00
2007,08,11,09,19,16.00
2007,08,11,09,20,16.00
2007,08,11,09,21,16.00
2007,08,11,09,22,16.10
2007,08,11,09,23,16.10
2007,08,11,09,24,16.10
2007,08,11,09,25,16.10
2007,08,11,09,26,16.10
2007,08,11,09,27,16.10
2007,08,11,09,28,16.20
2007,08,11,09,29,16.20
2007,08,11,09,30,16.10
2007,08,11,09,31,16.10
2007,08,11,09,32,16.10
2007,08,11,09,33,16.10
2007,08,11,09,34,16.10
2007,08,11,09,35,16.10
2007,08,11,09,36,16.10
2007,08,11,09,37,16.10
2007,08,11,09,38,16.10
2007,08,11,09,39,16.20
2007,08,11,09,40,16.10
2007,08,11,09,41,16.10
2007,08,11,09,42,16.10
2007,08,11,09,43,16.10
2007,08,11,09,44,16.10
2007,08,11,09,45,16.20
2007,08,11,09,46,16.20
2007,08,11,09,47,16.20
2007,08,11,09,48,16.20
2007,08,11,09,49,16.20
2007,08,11,09,50,16.20
2007,08,11,09,51,16.20
2007,08,11,09,52,16.20
2007,08,11,09,53,16.30
2007,08,11,09,54,16.30
2007,08,11,09,55,16.30
2007,08,11,09,56,16.30
2007,08,11,09,57,16.20
2007,08,11,09,58,16.20
2007,08,11,09,59,16.10
2007,08,11,10,00,16.10
2007,08,11,10,01,16.10
2007,08,11,10,02,16.10
2007,08,11,10,03,16.10
2007,08,11,10,04,16.10
2007,08,11,10,05,16.10
2007,08,11,10,06,16.10
2007,08,11,10,07,16.10
2007,08,11,10,08,16.10
2007,08,11,10,09,16.10
2007,08,11,10,10,16.20
2007,08,11,10,11,16.20
2007,08,11,10,12,16.20
2007,08,11,10,13,16.20
2007,08,11,10,14,16.20
2007,08,11,10,15,16.30
2007,08,11,10,16,16.20
2007,08,11,10,17,16.20
2007,08,11,10,18,16.20
2007,08,11,10,19,16.20
2007,08,11,10,20,16.20
2007,08,11,10,21,16.20
2007,08,11,10,22,16.20
2007,08,11,10,23,16.20
2007,08,11,10,24,16.20
2007,08,11,10,25,16.20
2007,08,11,10,26,16.20
2007,08,11,10,27,16.20
2007,08,11,10,28,16.20
2007,08,11,10,29,16.30
2007,08,11,10,30,16.30
2007,08,11,10,31,16.40
2007,08,11,10,32,16.40
2007,08,11,10,33,16.50
2007,08,11,10,34,16.50
2007,08,11,10,35,16.60
2007,08,11,10,36,16.70
2007,08,11,10,37,16.70
2007,08,11,10,38,16.80
2007,08,11,10,39,16.80
2007,08,11,10,40,16.80
2007,08,11,10,41,16.80
2007,08,11,10,42,16.80
2007,08,11,10,43,16.80
2007,08,11,10,44,16.80
2007,08,11,10,45,16.70
2007,08,11,10,46,16.70
2007,08,11,10,47,16.70
2007,08,11,10,48,16.70
2007,08,11,10,49,16.70
2007,08,11,10,50,16.80
2007,08,11,10,51,16.90
2007,08,11,10,52,17.00
2007,08,11,10,53,17.00
2007,08,11,10,54,17.00
2007,08,11,10,55,17.10
2007,08,11,10,56,17.10
2007,08,11,10,57,17.10
2007,08,11,10,58,17.20
2007,08,11,10,59,17.20
2007,08,11,11,00,17.20
2007,08,11,11,01,17.20
2007,08,11,11,02,17.10
2007,08,11,11,03,17.10
2007,08,11,11,04,17.20
2007,08,11,11,05,17.10
2007,08,11,11,06,17.10
2007,08,11,11,07,17.00
2007,08,11,11,08,16.90
2007,08,11,11,09,16.90
2007,08,11,11,10,16.90
2007,08,11,11,11,16.90
2007,08,11,11,12,16.90
2007,08,11,11,13,16.90
2007,08,11,11,14,16.90
2007,08,11,11,15,16.90
2007,08,11,11,16,16.90
2007,08,11,11,17,16.90
2007,08,11,11,18,17.00
2007,08,11,11,19,17.00
2007,08,11,11,20,17.00
2007,08,11,11,21,16.90
2007,08,11,11,22,16.90
2007,08,11,11,23,16.80
2007,08,11,11,24,16.90
2007,08,11,11,25,16.90
2007,08,11,11,26,16.90
2007,08,11,11,27,16.90
2007,08,11,11,28,16.90
2007,08,11,11,29,17.00
2007,08,11,11,30,17.00
2007,08,11,11,31,17.10
2007,08,11,11,32,17.10
2007,08,11,11,33,17.10
2007,08,11,11,34,17.10
2007,08,11,11,35,17.10
2007,08,11,11,36,17.10
2007,08,11,11,37,17.10
2007,08,11,11,38,17.10
2007,08,11,11,39,17.10
2007,08,11,11,40,17.20
2007,08,11,11,41,17.20
2007,08,11,11,42,17.20
2007,08,11,11,43,17.10
2007,08,11,11,44,17.00
2007,08,11,11,45,16.90
2007,08,11,11,46,16.80
2007,08,11,11,47,16.80
2007,08,11,11,48,16.70
2007,08,11,11,49,16.70
2007,08,11,11,50,16.70
2007,08,11,11,51,16.80
2007,08,11,11,52,16.80
2007,08,11,11,53,16.80
2007,08,11,11,54,16.90
2007,08,11,11,55,16.90
2007,08,11,11,56,16.90
2007,08,11,11,57,16.90
2007,08,11,11,58,16.90
2007,08,11,11,59,16.80
2007,08,11,12,00,16.80
2007,08,11,12,01,16.80
2007,08,11,12,02,16.70
2007,08,11,12,03,16.70
2007,08,11,12,04,16.70
2007,08,11,12,05,16.70
2007,08,11,12,06,16.70
2007,08,11,12,07,16.70
2007,08,11,12,08,16.70
2007,08,11,12,09,16.70
2007,08,11,12,10,16.70
2007,08,11,12,11,16.70
2007,08,11,12,12,16.70
2007,08,11,12,13,16.80
2007,08,11,12,14,16.80
2007,08,11,12,15,16.80
2007,08,11,12,16,16.80
2007,08,11,12,17,16.80
2007,08,11,12,18,16.90
2007,08,11,12,19,16.90
2007,08,11,12,20,16.90
2007,08,11,12,21,16.90
2007,08,11,12,22,16.90
2007,08,11,12,23,16.90
2007,08,11,12,24,16.90
2007,08,11,12,25,16.90
2007,08,11,12,26,16.90
2007,08,11,12,27,17.00
2007,08,11,12,28,16.90
2007,08,11,12,29,16.90
2007,08,11,12,30,16.90
2007,08,11,12,31,16.90
2007,08,11,12,32,16.90
2007,08,11,12,33,17.00
2007,08,11,12,34,17.10
2007,08,11,12,35,17.10
2007,08,11,12,36,17.10
2007,08,11,12,37,17.10
2007,08,11,12,38,17.10
2007,08,11,12,39,17.10
2007,08,11,12,40,17.10
2007,08,11,12,41,17.10
2007,08,11,12,42,17.10
2007,08,11,12,43,17.10
2007,08,11,12,44,17.00
2007,08,11,12,45,17.00
2007,08,11,12,46,17.10
2007,08,11,12,47,17.10
2007,08,11,12,48,17.10
2007,08,11,12,49,17.10
2007,08,11,12,50,17.20
2007,08,11,12,51,17.20
2007,08,11,12,52,17.20
2007,08,11,12,53,17.20
2007,08,11,12,54,17.20
2007,08,11,12,55,17.30
2007,08,11,12,56,17.40
2007,08,11,12,57,17.40
2007,08,11,12,58,17.40
2007,08,11,12,59,17.30
2007,08,11,13,00,17.30
2007,08,11,13,01,17.30
2007,08,11,13,02,17.30
2007,08,11,13,03,17.30
2007,08,11,13,04,17.30
2007,08,11,13,05,17.30
2007,08,11,13,06,17.30
2007,08,11,13,07,17.30
2007,08,11,13,08,17.30
2007,08,11,13,09,17.30
2007,08,11,13,10,17.30
2007,08,11,13,11,17.20
2007,08,11,13,12,17.20
2007,08,11,13,13,17.20
2007,08,11,13,14,17.20
2007,08,11,13,15,17.20
2007,08,11,13,16,17.20
2007,08,11,13,17,17.20
2007,08,11,13,18,17.30
2007,08,11,13,19,17.30
2007,08,11,13,20,17.20
2007,08,11,13,21,17.20
2007,08,11,13,22,17.20
2007,08,11,13,23,17.20
2007,08,11,13,24,17.20
2007,08,11,13,25,17.20
2007,08,11,13,26,17.20
2007,08,11,13,27,17.30
2007,08,11,13,28,17.30
2007,08,11,13,29,17.30
2007,08,11,13,30,17.30
2007,08,11,13,31,17.30
2007,08,11,13,32,17.30
2007,08,11,13,33,17.30
2007,08,11,13,34,17.30
2007,08,11,13,35,17.30
2007,08,11,13,36,17.20
2007,08,11,13,37,17.20
2007,08,11,13,38,17.30
2007,08,11,13,39,17.30
2007,08,11,13,40,17.30
2007,08,11,13,41,17.30
2007,08,11,13,42,17.30
2007,08,11,13,43,17.30
2007,08,11,13,44,17.30
2007,08,11,13,45,17.30
2007,08,11,13,46,17.30
2007,08,11,13,47,17.40
2007,08,11,13,48,17.40
2007,08,11,13,49,17.40
2007,08,11,13,50,17.40
2007,08,11,13,51,17.40
2007,08,11,13,52,17.40
2007,08,11,13,53,17.40
2007,08,11,13,54,17.40
2007,08,11,13,55,17.30
2007,08,11,13,56,17.30
2007,08,11,13,57,17.30
2007,08,11,13,58,17.30
2007,08,11,13,59,17.30
2007,08,11,14,00,17.30
2007,08,11,14,01,17.30
2007,08,11,14,02,17.30
2007,08,11,14,03,17.20
2007,08,11,14,04,17.20
2007,08,11,14,05,17.10
2007,08,11,14,06,17.10
2007,08,11,14,07,17.10
2007,08,11,14,08,17.00
2007,08,11,14,09,17.00
2007,08,11,14,10,17.00
2007,08,11,14,11,17.00
2007,08,11,14,12,17.00
2007,08,11,14,13,17.00
2007,08,11,14,14,17.00
2007,08,11,14,15,17.10
2007,08,11,14,16,17.10
2007,08,11,14,17,17.10
2007,08,11,14,18,17.20
2007,08,11,14,19,17.20
2007,08,11,14,20,17.20
2007,08,11,14,21,17.20
2007,08,11,14,22,17.30
2007,08,11,14,23,17.30
2007,08,11,14,24,17.30
2007,08,11,14,25,17.30
2007,08,11,14,26,17.30
2007,08,11,14,27,17.30
2007,08,11,14,28,17.30
2007,08,11,14,29,17.30
2007,08,11,14,30,17.30
2007,08,11,14,31,17.30
2007,08,11,14,32,17.30
2007,08,11,14,33,17.30
2007,08,11,14,34,17.30
2007,08,11,14,35,17.30
2007,08,11,14,36,17.30
2007,08,11,14,37,17.20
2007,08,11,14,38,17.30
2007,08,11,14,39,17.30
2007,08,11,14,40,17.30
2007,08,11,14,41,17.30
2007,08,11,14,42,17.30
2007,08,11,14,43,17.40
2007,08,11,14,44,17.40
2007,08,11,14,45,17.50
2007,08,11,14,46,17.50
2007,08,11,14,47,17.50
2007,08,11,14,48,17.60
2007,08,11,14,49,17.60
2007,08,11,14,50,17.60
2007,08,11,14,51,17.60
2007,08,11,14,52,17.60
2007,08,11,14,53,17.60
2007,08,11,14,54,17.50
2007,08,11,14,55,17.50
2007,08,11,14,56,17.50
2007,08,11,14,57,17.50
2007,08,11,14,58,17.50
2007,08,11,14,59,17.50
2007,08,11,15,00,17.60
2007,08,11,15,01,17.60
2007,08,11,15,02,17.60
2007,08,11,15,03,17.60
2007,08,11,15,04,17.70
2007,08,11,15,05,17.70
2007,08,11,15,06,17.70
2007,08,11,15,07,17.70
2007,08,11,15,08,17.70
2007,08,11,15,09,17.70
2007,08,11,15,10,17.70
2007,08,11,15,11,17.70
2007,08,11,15,12,17.70
2007,08,11,15,13,17.70
2007,08,11,15,14,17.60
2007,08,11,15,15,17.60
2007,08,11,15,16,17.60
2007,08,11,15,17,17.60
2007,08,11,15,18,17.60
2007,08,11,15,19,17.60
2007,08,11,15,20,17.60
2007,08,11,15,21,17.60
2007,08,11,15,22,17.60
2007,08,11,15,23,17.60
2007,08,11,15,24,17.60
2007,08,11,15,25,17.60
2007,08,11,15,26,17.60
2007,08,11,15,27,17.60
2007,08,11,15,28,17.50
2007,08,11,15,29,17.50
2007,08,11,15,30,17.50
2007,08,11,15,31,17.50
2007,08,11,15,32,17.50
2007,08,11,15,33,17.50
2007,08,11,15,34,17.60
2007,08,11,15,35,17.60
2007,08,11,15,36,17.60
2007,08,11,15,37,17.60
2007,08,11,15,38,17.60
2007,08,11,15,39,17.60
2007,08,11,15,40,17.60
2007,08,11,15,41,17.60
2007,08,11,15,42,17.60
2007,08,11,15,43,17.60
2007,08,11,15,44,17.60
2007,08,11,15,45,17.60
2007,08,11,15,46,17.60
2007,08,11,15,47,17.60
2007,08,11,15,48,17.50
2007,08,11,15,49,17.50
2007,08,11,15,50,17.50
2007,08,11,15,51,17.60
2007,08,11,15,52,17.60
2007,08,11,15,53,17.60
2007,08,11,15,54,17.60
2007,08,11,15,55,17.70
2007,08,11,15,56,17.70
2007,08,11,15,57,17.70
2007,08,11,15,58,17.70
2007,08,11,15,59,17.70
2007,08,11,16,00,17.70
2007,08,11,16,01,17.70
2007,08,11,16,02,17.60
2007,08,11,16,03,17.60
2007,08,11,16,04,17.60
2007,08,11,16,05,17.60
2007,08,11,16,06,17.60
2007,08,11,16,07,17.70
2007,08,11,16,08,17.70
2007,08,11,16,09,17.80
2007,08,11,16,10,17.80
2007,08,11,16,11,17.80
2007,08,11,16,12,17.80
2007,08,11,16,13,17.80
2007,08,11,16,14,17.80
2007,08,11,16,15,17.80
2007,08,11,16,16,17.80
2007,08,11,16,17,17.80
2007,08,11,16,18,17.90
2007,08,11,16,19,17.90
2007,08,11,16,20,18.00
2007,08,11,16,21,18.00
2007,08,11,16,22,18.00
2007,08,11,16,23,18.00
2007,08,11,16,24,18.00
2007,08,11,16,25,18.10
2007,08,11,16,26,18.10
2007,08,11,16,27,18.00
2007,08,11,16,28,18.00
2007,08,11,16,29,17.90
2007,08,11,16,30,17.90
2007,08,11,16,31,17.90
2007,08,11,16,32,17.90
2007,08,11,16,33,17.80
2007,08,11,16,34,17.80
2007,08,11,16,35,17.80
2007,08,11,16,36,17.90
2007,08,11,16,37,17.90
2007,08,11,16,38,17.90
2007,08,11,16,39,17.90
2007,08,11,16,40,17.90
2007,08,11,16,41,17.90
2007,08,11,16,42,17.90
2007,08,11,16,43,17.90
2007,08,11,16,44,17.90
2007,08,11,16,45,17.90
2007,08,11,16,46,17.90
2007,08,11,16,47,17.90
2007,08,11,16,48,17.90
2007,08,11,16,49,17.90
2007,08,11,16,50,18.00
2007,08,11,16,51,18.00
2007,08,11,16,52,18.00
2007,08,11,16,53,18.00
2007,08,11,16,54,18.00
2007,08,11,16,55,18.00
2007,08,11,16,56,18.00
2007,08,11,16,57,18.10
2007,08,11,16,58,18.10
2007,08,11,16,59,18.10
2007,08,11,17,00,18.10
2007,08,11,17,01,18.10
2007,08,11,17,02,18.10
2007,08,11,17,03,18.10
2007,08,11,17,04,18.10
2007,08,11,17,05,18.10
2007,08,11,17,06,18.10
2007,08,11,17,07,18.10
2007,08,11,17,08,18.00
2007,08,11,17,09,18.00
2007,08,11,17,10,18.00
2007,08,11,17,11,17.90
2007,08,11,17,12,17.90
2007,08,11,17,13,17.80
2007,08,11,17,14,17.70
2007,08,11,17,15,17.70
2007,08,11,17,16,17.70
2007,08,11,17,17,17.60
2007,08,11,17,18,17.60
2007,08,11,17,19,17.60